TOM921P EGBB-EGMC

Flight info

Callsign TOM921P
Flight time 0h 28m
Altitude 15000
Route DTY M605 FINMA
Aircraft B738/M-SDE2E3FGHIRWXY/LB1

Departure

Time 2026-04-20 16:25
Airport Birmingham Airport (EGBB)

Arrival

Time 2026-04-20 16:54
Airport London Southend Airport (EGMC)
Time Latitude Longitude Altitude Speed Heading
2026-04-20 15:52 52.45281 -1.73537 337 ft 0 kts 325°
2026-04-20 16:11 52.45271 -1.73526 332 ft 2 kts 324°
2026-04-20 16:11 52.45258 -1.73510 333 ft 2 kts 324°
2026-04-20 16:11 52.45245 -1.73495 334 ft 2 kts 324°
2026-04-20 16:12 52.45234 -1.73481 333 ft 0 kts 323°
2026-04-20 16:16 52.45235 -1.73484 333 ft 1 kts 319°
2026-04-20 16:16 52.45232 -1.73497 333 ft 1 kts 225°
2026-04-20 16:16 52.45222 -1.73503 336 ft 2 kts 205°
2026-04-20 16:16 52.45212 -1.73511 338 ft 1 kts 205°
2026-04-20 16:17 52.45203 -1.73518 338 ft 2 kts 206°
2026-04-20 16:17 52.45179 -1.73543 352 ft 6 kts 219°
2026-04-20 16:17 52.45150 -1.73605 346 ft 8 kts 235°
2026-04-20 16:17 52.45119 -1.73679 353 ft 8 kts 236°
2026-04-20 16:18 52.45101 -1.73758 360 ft 7 kts 269°
2026-04-20 16:18 52.45123 -1.73810 363 ft 11 kts 319°
2026-04-20 16:18 52.45229 -1.73924 362 ft 22 kts 325°
2026-04-20 16:18 52.45319 -1.74072 367 ft 18 kts 297°
2026-04-20 16:19 52.45376 -1.74253 374 ft 18 kts 296°
2026-04-20 16:19 52.45429 -1.74429 384 ft 17 kts 296°
2026-04-20 16:19 52.45487 -1.74592 390 ft 16 kts 316°
2026-04-20 16:19 52.45586 -1.74700 389 ft 19 kts 327°
2026-04-20 16:20 52.45698 -1.74825 391 ft 19 kts 325°
2026-04-20 16:20 52.45813 -1.74953 392 ft 21 kts 326°
2026-04-20 16:20 52.45931 -1.75088 393 ft 22 kts 323°
2026-04-20 16:20 52.46064 -1.75235 391 ft 24 kts 326°
2026-04-20 16:21 52.46206 -1.75391 386 ft 25 kts 326°
2026-04-20 16:21 52.46353 -1.75551 385 ft 27 kts 327°
2026-04-20 16:21 52.46502 -1.75719 388 ft 26 kts 324°
2026-04-20 16:21 52.46614 -1.75847 390 ft 17 kts 322°
2026-04-20 16:22 52.46623 -1.75921 392 ft 6 kts 246°
2026-04-20 16:22 52.46605 -1.75979 399 ft 6 kts 240°
2026-04-20 16:22 52.46583 -1.76032 401 ft 6 kts 232°
2026-04-20 16:22 52.46558 -1.76079 405 ft 6 kts 214°
2026-04-20 16:23 52.46530 -1.76075 406 ft 0 kts 147°
2026-04-20 16:24 52.46460 -1.75999 407 ft 44 kts 146°
2026-04-20 16:24 52.45964 -1.75445 402 ft 126 kts 145°
2026-04-20 16:25 52.45061 -1.74413 521 ft 182 kts 143°
2026-04-20 16:25 52.43918 -1.73161 1050 ft 212 kts 144°
2026-04-20 16:25 52.42684 -1.71843 2023 ft 207 kts 143°
2026-04-20 16:25 52.41477 -1.70584 3000 ft 208 kts 146°
2026-04-20 16:26 52.40222 -1.69315 3607 ft 219 kts 160°
2026-04-20 16:26 52.38679 -1.69132 4217 ft 226 kts 176°
2026-04-20 16:26 52.37190 -1.68450 4879 ft 223 kts 149°
2026-04-20 16:26 52.35867 -1.67131 5546 ft 224 kts 134°
2026-04-20 16:27 52.35076 -1.64975 6011 ft 230 kts 106°
2026-04-20 16:27 52.34705 -1.62363 5996 ft 241 kts 98°
2026-04-20 16:27 52.34411 -1.59599 6013 ft 245 kts 98°
2026-04-20 16:27 52.34059 -1.56875 5976 ft 247 kts 110°
2026-04-20 16:28 52.33259 -1.54329 6013 ft 265 kts 116°
2026-04-20 16:28 52.32383 -1.51667 6019 ft 267 kts 116°
2026-04-20 16:28 52.31516 -1.48975 6039 ft 268 kts 116°
2026-04-20 16:28 52.30594 -1.46320 6060 ft 269 kts 118°
2026-04-20 16:29 52.29629 -1.43648 6060 ft 270 kts 119°
2026-04-20 16:29 52.28684 -1.41033 6072 ft 271 kts 118°
2026-04-20 16:29 52.27729 -1.38378 6045 ft 271 kts 118°
2026-04-20 16:29 52.26779 -1.35728 6050 ft 270 kts 118°
2026-04-20 16:30 52.25829 -1.33079 6070 ft 270 kts 118°
2026-04-20 16:30 52.24876 -1.30429 6055 ft 271 kts 118°
2026-04-20 16:30 52.23920 -1.27778 6048 ft 271 kts 118°
2026-04-20 16:30 52.22966 -1.25132 6049 ft 269 kts 118°
2026-04-20 16:31 52.22019 -1.22509 6044 ft 268 kts 118°
2026-04-20 16:31 52.21072 -1.19888 6056 ft 267 kts 118°
2026-04-20 16:31 52.20127 -1.17278 6054 ft 267 kts 118°
2026-04-20 16:31 52.19184 -1.14673 6046 ft 267 kts 118°
2026-04-20 16:32 52.18087 -1.12239 6031 ft 269 kts 138°
2026-04-20 16:32 52.16428 -1.10823 6166 ft 275 kts 163°
2026-04-20 16:32 52.14539 -1.10167 6971 ft 276 kts 168°
2026-04-20 16:32 52.12637 -1.09582 7797 ft 283 kts 169°
2026-04-20 16:33 52.10682 -1.08980 8633 ft 287 kts 169°
2026-04-20 16:33 52.08705 -1.08355 9469 ft 291 kts 169°
2026-04-20 16:33 52.06704 -1.07711 10306 ft 296 kts 169°
2026-04-20 16:33 52.04643 -1.07043 10782 ft 313 kts 170°
2026-04-20 16:34 52.02464 -1.06055 10918 ft 340 kts 154°
2026-04-20 16:34 52.00590 -1.03607 11294 ft 355 kts 126°
2026-04-20 16:34 51.99576 -0.99962 11957 ft 359 kts 98°
2026-04-20 16:34 51.99468 -0.95921 12753 ft 360 kts 88°
2026-04-20 16:35 51.99506 -0.91837 13488 ft 365 kts 86°
2026-04-20 16:35 51.99552 -0.87702 14275 ft 367 kts 86°
2026-04-20 16:35 51.99590 -0.83513 14475 ft 374 kts 87°
2026-04-20 16:35 51.99612 -0.79302 14552 ft 375 kts 87°
2026-04-20 16:36 51.99622 -0.75063 15117 ft 373 kts 88°
2026-04-20 16:36 51.99624 -0.70873 15248 ft 371 kts 88°
2026-04-20 16:36 51.99621 -0.66692 15257 ft 368 kts 88°
2026-04-20 16:36 51.99616 -0.62560 15259 ft 365 kts 88°
2026-04-20 16:37 51.99610 -0.58437 15271 ft 366 kts 88°
2026-04-20 16:37 51.99602 -0.54296 15269 ft 367 kts 88°
2026-04-20 16:37 51.99594 -0.50204 15267 ft 367 kts 88°
2026-04-20 16:37 51.99584 -0.46002 15274 ft 368 kts 88°
2026-04-20 16:38 51.99571 -0.41854 15267 ft 368 kts 88°
2026-04-20 16:38 51.99553 -0.37704 15266 ft 368 kts 88°
2026-04-20 16:38 51.99510 -0.33545 15265 ft 368 kts 89°
2026-04-20 16:38 51.99458 -0.29452 15268 ft 367 kts 89°
2026-04-20 16:39 51.99404 -0.25379 15254 ft 355 kts 89°
2026-04-20 16:39 51.99350 -0.21454 15245 ft 341 kts 89°
2026-04-20 16:39 51.99300 -0.17694 15249 ft 327 kts 89°
2026-04-20 16:39 51.99253 -0.14050 15253 ft 322 kts 88°
2026-04-20 16:40 51.99207 -0.10425 15273 ft 324 kts 88°
2026-04-20 16:40 51.99160 -0.06784 15263 ft 318 kts 89°
2026-04-20 16:40 51.99111 -0.03298 15245 ft 300 kts 88°
2026-04-20 16:40 51.99063 -0.00021 15236 ft 282 kts 88°
2026-04-20 16:41 51.99017 0.03072 15219 ft 268 kts 88°
2026-04-20 16:41 51.98915 0.06095 14809 ft 271 kts 99°
2026-04-20 16:41 51.98237 0.08979 14338 ft 275 kts 115°
2026-04-20 16:41 51.97386 0.11757 13989 ft 275 kts 115°
2026-04-20 16:42 51.96529 0.14532 13585 ft 275 kts 115°
2026-04-20 16:42 51.95679 0.17294 13174 ft 273 kts 115°
2026-04-20 16:42 51.94838 0.20045 12783 ft 271 kts 115°
2026-04-20 16:42 51.94006 0.22777 12380 ft 270 kts 115°
2026-04-20 16:43 51.93180 0.25494 12002 ft 268 kts 115°
2026-04-20 16:43 51.92362 0.28195 11619 ft 267 kts 115°
2026-04-20 16:43 51.91547 0.30882 11242 ft 265 kts 115°
2026-04-20 16:43 51.90737 0.33555 10867 ft 264 kts 115°
2026-04-20 16:44 51.89929 0.36222 10502 ft 263 kts 115°
2026-04-20 16:44 51.89124 0.38874 10137 ft 262 kts 115°
2026-04-20 16:44 51.88320 0.41521 9730 ft 261 kts 115°
2026-04-20 16:44 51.87520 0.44154 9323 ft 260 kts 115°
2026-04-20 16:45 51.86726 0.46767 8932 ft 258 kts 115°
2026-04-20 16:45 51.85935 0.49364 8537 ft 257 kts 115°
2026-04-20 16:45 51.85140 0.51935 8146 ft 255 kts 119°
2026-04-20 16:45 51.83872 0.53891 7712 ft 255 kts 158°
2026-04-20 16:46 51.82156 0.54288 7368 ft 249 kts 186°
2026-04-20 16:46 51.80438 0.54069 7009 ft 248 kts 185°
2026-04-20 16:46 51.78717 0.53869 6631 ft 247 kts 184°
2026-04-20 16:46 51.76999 0.53678 6233 ft 247 kts 184°
2026-04-20 16:47 51.75285 0.53493 5845 ft 247 kts 184°
2026-04-20 16:47 51.73569 0.53312 5451 ft 247 kts 184°
2026-04-20 16:47 51.71857 0.53135 5066 ft 246 kts 184°
2026-04-20 16:47 51.70153 0.52961 4679 ft 246 kts 183°
2026-04-20 16:48 51.68467 0.52788 4329 ft 245 kts 183°
2026-04-20 16:48 51.66730 0.52615 4061 ft 250 kts 183°
2026-04-20 16:48 51.64967 0.52440 3668 ft 256 kts 183°
2026-04-20 16:48 51.63795 0.52321 3485 ft 252 kts 183°
2026-04-20 16:49 51.62070 0.52148 3224 ft 246 kts 183°
2026-04-20 16:49 51.60386 0.51981 2976 ft 239 kts 183°
2026-04-20 16:49 51.58749 0.51817 2737 ft 234 kts 183°
2026-04-20 16:49 51.57144 0.51660 2492 ft 228 kts 182°
2026-04-20 16:50 51.55567 0.51504 2256 ft 226 kts 183°
2026-04-20 16:50 51.54000 0.51347 2076 ft 225 kts 183°
2026-04-20 16:50 51.52478 0.51224 1991 ft 211 kts 175°
2026-04-20 16:50 51.51230 0.52040 2000 ft 189 kts 128°
2026-04-20 16:51 51.50723 0.53897 1989 ft 182 kts 86°
2026-04-20 16:51 51.50999 0.55781 1989 ft 169 kts 56°
2026-04-20 16:51 51.51632 0.57307 1986 ft 160 kts 52°
2026-04-20 16:51 51.52253 0.58714 1994 ft 152 kts 51°
2026-04-20 16:52 51.52864 0.60068 1979 ft 148 kts 51°
2026-04-20 16:52 51.53472 0.61412 1815 ft 150 kts 51°
2026-04-20 16:52 51.54079 0.62755 1504 ft 149 kts 51°
2026-04-20 16:52 51.54695 0.64118 1078 ft 154 kts 50°
2026-04-20 16:53 51.55325 0.65509 708 ft 154 kts 53°
2026-04-20 16:53 51.55953 0.66904 375 ft 154 kts 54°
2026-04-20 16:53 51.56566 0.68274 86 ft 150 kts 55°
2026-04-20 16:53 51.57115 0.69504 52 ft 115 kts 54°
2026-04-20 16:54 51.57337 0.69995 51 ft 40 kts 54°
2026-04-20 16:54 51.57487 0.70324 46 ft 26 kts 53°
2026-04-20 16:54 51.57526 0.70462 43 ft 0 kts 118°
2026-04-20 16:54 51.57525 0.70463 43 ft 0 kts 122°
2026-04-20 16:55 51.57512 0.70473 43 ft 5 kts 163°
2026-04-20 16:55 51.57454 0.70470 44 ft 12 kts 194°
2026-04-20 16:55 51.57418 0.70456 45 ft 0 kts 192°
2026-04-20 16:56 51.57415 0.70455 45 ft 3 kts 192°
2026-04-20 16:56 51.57362 0.70433 45 ft 13 kts 202°
2026-04-20 16:56 51.57295 0.70307 46 ft 16 kts 233°
2026-04-20 16:56 51.57199 0.70232 47 ft 16 kts 185°
2026-04-20 16:57 51.57090 0.70220 48 ft 15 kts 184°
2026-04-20 16:57 51.57018 0.70224 46 ft 5 kts 143°
2026-04-20 16:57 51.57005 0.70277 48 ft 5 kts 95°
2026-04-20 16:57 51.57005 0.70278 48 ft 0 kts 95°